THAICOM 6

Last updated on Thu Feb 05 2026 00:02:50 GMT+0000 (Coordinated Universal Time)

1 39500U 14002A 26035.53003729 -.00000126 00000+0 00000+0 0 9997 2 39500 0.0312 130.0470 0002287 239.3342 34.6196 1.00268947 44122
UTC large
Height (km)
Speed (km/s)
/
Latitude / Longitude
Inclination (degrees)
Orbital Period (minutes)
Azimuth
Elevation
Range (km)
Doppler Factor

Next 0 passes for location: London (51.5072 / 0.1276)

Sorry there are no passes over London.